DW6044 Weather Reports


time (UTC)temp
C
wind
direction
speed
KPH
gust
KPH
rain 1hr
cm
rain 24hr
cm
rain mn
cm
humidity
%
barometer
mb
20260510022604 11 0 0.0 0.0 0.00 0.00 0.00 90 1010.9
20260510022404 11 127 0.0 0.0 0.00 0.00 0.00 90 1011.4
20260510022204 11 0 0.0 0.0 0.00 0.00 0.00 90 1010.9
20260510022004 11 0 0.0 0.0 0.00 0.00 0.00 90 1010.9
20260510021903 11 127 0.0 0.0 0.00 0.00 0.00 90 1011.3
20260510021804 11 0 0.0 0.0 0.00 0.00 0.00 90 1010.9
20260510021604 11 0 0.0 0.0 0.00 0.00 0.00 90 1010.9
20260510021558 11 127 0.0 0.0 0.00 0.00 0.00 90 1011.3
20260510021520 11 127 0.0 0.0 0.00 0.00 0.00 90 1011.3
20260510021004 11 0 0.0 0.0 0.00 0.00 0.00 89 1010.9
20260510020904 11 127 0.0 0.0 0.00 0.00 0.00 89 1011.3
20260510020804 11 0 0.0 0.0 0.00 0.00 0.00 89 1011.0
20260510020604 11 0 0.0 0.0 0.00 0.00 0.00 89 1011.0
20260510020404 11 127 0.0 0.0 0.00 0.00 0.00 89 1011.4
20260510020204 11 0 0.0 0.0 0.00 0.00 0.00 89 1011.0
20260510020032 11 127 0.0 0.0 0.00 0.00 0.00 89 1011.3
20260510020005 11 0 0.0 0.0 0.00 0.00 0.00 89 1011.0
20260510015804 11 0 0.0 0.0 0.00 0.00 0.00 89 1010.9
20260510015405 11 0 0.0 0.0 0.00 0.00 0.00 89 1011.0
20260510014904 11 127 0.0 0.0 0.00 0.00 0.00 89 1011.2
20260510014804 11 0 0.0 0.0 0.00 0.00 0.00 89 1010.8
20260510014604 11 0 0.0 0.0 0.00 0.00 0.00 89 1010.8
20260510014535 11 127 0.0 0.0 0.00 0.00 0.00 89 1011.2
20260510014404 11 0 0.0 0.0 0.00 0.00 0.00 88 1010.8
20260510014203 11 0 0.0 0.0 0.00 0.00 0.00 88 1010.7
20260510014003 11 0 0.0 0.0 0.00 0.00 0.00 88 1010.7
20260510013903 11 127 0.0 0.0 0.00 0.00 0.00 88 1011.2
20260510013802 11 0 0.0 0.0 0.00 0.00 0.00 88 1010.7
20260510013603 11 0 0.0 0.0 0.00 0.00 0.00 88 1010.7
20260510013403 11 127 0.0 0.0 0.00 0.00 0.00 88 1011.1
20260510013203 11 0 0.0 0.0 0.00 0.00 0.00 88 1010.7
20260510013101 11 126 0.0 0.0 0.00 0.00 0.00 88 1011.1
20260510013010 11 127 0.0 0.0 0.00 0.00 0.00 88 1011.0
20260510013002 11 0 0.0 0.0 0.00 0.00 0.00 88 1010.6
20260510012904 11 127 0.0 0.0 0.00 0.00 0.00 88 1011.0
20260510012803 11 0 0.0 0.0 0.00 0.00 0.00 88 1010.6
20260510012604 11 0 0.0 0.0 0.00 0.00 0.00 88 1010.5
20260510012403 11 0 0.0 0.0 0.00 0.00 0.00 87 1010.5
20260510012204 11 0 0.0 0.0 0.00 0.00 0.00 87 1010.5
20260510012003 11 0 0.0 0.0 0.00 0.00 0.00 87 1010.5
20260510011902 11 127 0.0 0.0 0.00 0.00 0.00 87 1010.9
20260510011803 11 0 0.0 0.0 0.00 0.00 0.00 87 1010.4
20260510011603 11 0 0.0 0.0 0.00 0.00 0.00 87 1010.4
20260510011551 11 127 0.0 0.0 0.00 0.00 0.00 87 1010.9
20260510011523 11 126 0.0 0.0 0.00 0.00 0.00 87 1010.9
20260510011403 11 127 0.0 0.0 0.00 0.00 0.00 87 1010.8
20260510011203 11 0 0.0 0.0 0.00 0.00 0.00 87 1010.4
20260510011003 11 0 0.0 0.0 0.00 0.00 0.00 86 1010.3
20260510010903 11 127 0.0 0.0 0.00 0.00 0.00 86 1010.7
20260510010803 11 0 0.0 0.0 0.00 0.00 0.00 86 1010.3
20260510010603 12 0 0.0 0.0 0.00 0.00 0.00 86 1010.2
20260510010403 12 0 0.0 0.0 0.00 0.00 0.00 86 1010.2
20260510010104 11 126 0.0 0.0 0.00 0.00 0.00 86 1010.6
20260510010024 11 127 0.0 0.0 0.00 0.00 0.00 86 1010.6
20260510010004 12 0 0.0 0.0 0.00 0.00 0.00 86 1010.2
20260510005802 12 0 0.0 0.0 0.00 0.00 0.00 85 1010.2
20260510005604 12 0 0.0 0.0 0.00 0.00 0.00 85 1010.2
20260510005403 12 127 0.0 0.0 0.00 0.00 0.00 85 1010.7
20260510005203 12 0 0.0 0.0 0.00 0.00 0.00 85 1010.1
20260510005004 12 0 0.0 0.0 0.00 0.00 0.00 85 1010.1
20260510004903 12 127 0.0 0.0 0.00 0.00 0.00 85 1010.6
20260510004804 12 0 0.0 0.0 0.00 0.00 0.00 85 1010.1
20260510004603 12 0 0.0 0.0 0.00 0.00 0.00 85 1010.0
20260510004528 12 126 0.0 0.0 0.00 0.00 0.00 85 1010.5
20260510004402 12 127 0.0 0.0 0.00 0.00 0.00 84 1010.5
20260510004003 12 0 0.0 0.0 0.00 0.00 0.00 84 1010.1
20260510003902 12 127 0.0 0.0 0.00 0.00 0.00 84 1010.5
20260510003803 12 0 0.0 0.0 0.00 0.00 0.00 84 1010.0
20260510003603 12 0 0.0 0.0 0.00 0.00 0.00 83 1010.0
20260510003403 12 127 0.0 0.0 0.00 0.00 0.00 83 1010.4
20260510003203 12 0 0.0 0.0 0.00 0.00 0.00 83 1009.9
20260510003043 12 127 0.0 0.0 0.00 0.00 0.00 83 1010.4
20260510003004 12 0 0.0 0.0 0.00 0.00 0.00 83 1009.9
20260510002903 12 127 0.0 0.0 0.00 0.00 0.00 83 1010.4
20260510002803 12 0 0.0 0.0 0.00 0.00 0.00 82 1010.0
20260510002602 12 0 0.0 0.0 0.00 0.00 0.00 82 1009.9
20260510002403 13 0 0.0 0.0 0.00 0.00 0.00 82 1009.9
20260510002003 13 0 0.0 0.0 0.00 0.00 0.00 82 1010.0
20260510001902 13 125 0.0 0.0 0.00 0.00 0.00 81 1010.4
20260510001555 13 125 0.0 0.0 0.00 0.00 0.00 81 1010.3
20260510001510 13 125 0.0 0.0 0.00 0.00 0.00 81 1010.4
20260510001403 13 0 0.0 0.0 0.00 0.00 0.00 81 1009.9
20260510001204 13 0 0.0 0.0 0.00 0.00 0.00 81 1010.0
20260510000903 13 125 0.0 0.0 0.00 0.00 0.00 80 1010.4
20260510000803 13 0 0.0 0.0 0.00 0.00 0.00 80 1010.0
20260510000603 13 0 0.0 0.0 0.00 0.00 0.00 80 1010.0
20260510000404 13 125 0.0 0.0 0.00 0.00 0.00 80 1010.4
20260510000204 13 0 0.0 0.0 0.00 0.00 0.00 79 1009.9
20260510000015 13 125 0.0 0.0 0.00 0.00 0.00 79 1010.3
20260510000003 14 0 0.0 0.0 0.00 0.00 0.00 78 1009.9
20260509235902 14 125 0.0 0.0 0.00 0.00 0.00 78 1010.3
20260509235603 14 0 0.0 0.0 0.00 0.00 0.00 78 1009.9
20260509235403 14 0 0.0 0.0 0.00 0.00 0.00 78 1009.9
20260509235203 14 0 0.0 0.0 0.00 0.00 0.00 78 1009.9
20260509234903 14 125 0.0 0.0 0.00 0.00 0.00 78 1010.3
20260509234803 14 0 0.0 0.0 0.00 0.00 0.00 78 1009.9
20260509234602 14 0 0.0 0.0 0.00 0.00 0.00 77 1009.8
20260509234526 14 125 0.0 0.0 0.00 0.00 0.00 77 1010.3
20260509234404 14 0 0.0 0.0 0.00 0.00 0.00 77 1009.9
20260509234203 15 0 0.0 0.0 0.00 0.00 0.00 77 1009.9
20260509234003 15 0 0.0 0.0 0.00 0.00 0.00 76 1009.9
20260509233902 15 178 0.0 0.0 0.00 0.00 0.00 76 1010.3
20260509233804 15 0 0.0 0.0 0.00 0.00 0.00 76 1009.9
20260509233604 15 0 0.0 0.0 0.00 0.00 0.00 76 1009.9
20260509233403 15 0 0.0 0.0 0.00 0.00 0.00 76 1010.0
20260509233204 15 0 0.0 0.0 0.00 0.00 0.00 76 1009.9
20260509233031 15 178 0.0 0.0 0.00 0.00 0.00 75 1010.4
20260509233003 15 0 0.0 0.0 0.00 0.00 0.00 75 1009.9
20260509232904 15 178 0.0 0.0 0.00 0.00 0.00 75 1010.3
20260509232803 15 0 0.0 0.0 0.00 0.00 0.00 75 1009.9
20260509232403 15 0 0.0 0.0 0.00 0.00 0.00 74 1009.9
20260509232203 15 0 0.0 0.0 0.00 0.00 0.00 74 1009.9
20260509232003 15 0 0.0 0.0 0.00 0.00 0.00 74 1009.9
20260509231902 15 55 0.0 0.0 0.00 0.00 0.00 74 1010.3
20260509231803 15 0 0.0 0.0 0.00 0.00 0.00 74 1009.8
20260509231603 15 0 0.0 0.0 0.00 0.00 0.00 74 1009.9
20260509231545 15 55 0.0 0.0 0.00 0.00 0.00 74 1010.3
20260509231508 15 55 0.0 0.0 0.00 0.00 0.00 73 1010.3
20260509231404 15 0 0.0 0.0 0.00 0.00 0.00 75 1009.9
20260509230902 15 55 0.0 0.0 0.00 0.00 0.00 73 1010.3
20260509230803 15 0 0.0 0.0 0.00 0.00 0.00 73 1009.9
20260509230603 15 0 0.0 0.0 0.00 0.00 0.00 74 1009.9
20260509230403 15 55 0.0 0.0 0.00 0.00 0.00 74 1010.2
20260509230203 15 0 0.0 0.0 0.00 0.00 0.00 74 1009.7
20260509230053 15 55 0.0 0.0 0.00 0.00 0.00 73 1010.2
20260509230018 15 55 0.0 0.0 0.00 0.00 0.00 73 1010.2
20260509230004 15 0 0.0 0.0 0.00 0.00 0.00 73 1009.8
20260509225904 15 55 0.0 0.0 0.00 0.00 0.00 72 1010.2
20260509225802 15 0 0.0 0.0 0.00 0.00 0.00 72 1009.7
20260509225603 15 0 0.0 0.0 0.00 0.00 0.00 73 1009.8
20260509225404 15 0 0.0 0.0 0.00 0.00 0.00 73 1009.8
20260509225203 15 0 0.0 0.0 0.00 0.00 0.00 73 1009.7
20260509225003 15 0 0.0 0.0 0.00 0.00 0.00 73 1009.8
20260509224803 15 0 0.0 0.0 0.00 0.00 0.00 72 1009.8
20260509224604 16 0 0.0 0.0 0.00 0.00 0.00 72 1009.8
20260509224528 15 55 0.0 0.0 0.00 0.00 0.00 72 1010.3
20260509224404 16 0 0.0 0.0 0.00 0.00 0.00 73 1009.8
20260509224202 16 0 0.0 0.0 0.00 0.00 0.00 75 1009.8
20260509224003 15 0 0.0 0.0 0.00 0.00 0.00 74 1009.8
20260509223903 16 55 0.0 0.0 0.00 0.00 0.00 73 1010.2
20260509223803 15 0 0.0 0.0 0.00 0.00 0.00 72 1009.8
20260509223603 15 0 0.0 0.0 0.00 0.00 0.00 73 1009.7
20260509223403 16 0 0.0 0.0 0.00 0.00 0.00 73 1009.7
20260509223204 16 0 0.0 0.0 0.00 0.00 0.00 73 1009.6
20260509223035 15 57 0.0 0.0 0.00 0.00 0.00 72 1010.1
20260509223003 16 0 0.0 0.0 0.00 0.00 0.00 74 1009.7
20260509222902 16 57 0.0 0.0 0.00 0.00 0.00 73 1010.0
20260509222803 16 0 0.0 0.0 0.00 0.00 0.00 73 1009.6
20260509222603 16 0 0.0 0.0 0.00 0.00 0.00 73 1009.7
20260509222403 16 0 0.0 0.0 0.00 0.00 0.00 74 1009.6
20260509222203 16 0 0.0 0.0 0.00 0.00 0.00 74 1009.6
20260509221803 16 0 0.0 1.6 0.00 0.00 0.00 74 1009.6
20260509221603 16 0 0.0 1.6 0.00 0.00 0.00 72 1009.7
20260509221601 15 87 0.0 0.0 0.00 0.00 0.00 72 1010.1
20260509221513 15 88 0.0 0.0 0.00 0.00 0.00 72 1010.1
20260509221403 16 0 0.0 0.0 0.00 0.00 0.00 73 1009.7
20260509221004 16 0 0.0 0.0 0.00 0.00 0.00 73 1009.8
20260509220902 16 88 0.0 0.0 0.00 0.00 0.00 73 1010.2
20260509220404 16 0 0.0 0.0 0.00 0.00 0.00 72 1009.9
20260509220203 16 0 0.0 0.0 0.00 0.00 0.00 72 1009.9
20260509220058 15 89 0.0 0.0 0.00 0.00 0.00 74 1010.4
20260509220010 15 89 0.0 0.0 0.00 0.00 0.00 73 1010.4
20260509220003 16 0 0.0 0.0 0.00 0.00 0.00 73 1010.0
20260509215903 16 89 0.0 0.0 0.00 0.00 0.00 73 1010.4
20260509215803 16 0 0.0 0.0 0.00 0.00 0.00 73 1010.0
20260509215603 16 0 0.0 0.0 0.00 0.00 0.00 72 1010.0
20260509215403 16 0 0.0 0.0 0.00 0.00 0.00 73 1010.0
20260509215203 16 0 0.0 0.0 0.00 0.00 0.00 74 1010.0
20260509215004 16 0 0.0 0.0 0.00 0.00 0.00 74 1010.0
20260509214902 16 89 0.0 0.0 0.00 0.00 0.00 73 1010.4
20260509214803 16 0 0.0 0.0 0.00 0.00 0.00 73 1010.0
20260509214603 16 0 0.0 0.0 0.00 0.00 0.00 74 1010.0
20260509214543 15 89 0.0 0.0 0.00 0.00 0.00 72 1010.3
20260509214504 15 88 0.0 0.0 0.00 0.00 0.00 72 1010.3
20260509214403 16 0 0.0 0.0 0.00 0.00 0.00 72 1009.9
20260509214204 16 0 0.0 0.0 0.00 0.00 0.00 73 1010.0
20260509214003 16 0 0.0 0.0 0.00 0.00 0.00 72 1009.9
20260509213903 16 89 0.0 0.0 0.00 0.00 0.00 72 1010.3
20260509213803 16 0 0.0 0.0 0.00 0.00 0.00 73 1009.9
20260509213403 16 73 0.0 0.0 0.00 0.00 0.00 72 1010.3
20260509213038 15 72 0.0 0.0 0.00 0.00 0.00 74 1010.3
20260509213004 15 73 0.0 0.0 0.00 0.00 0.00 74 1010.3
20260509212904 16 73 0.0 0.0 0.00 0.00 0.00 74 1010.3
20260509212603 16 0 0.0 0.0 0.00 0.00 0.00 73 1009.9
20260509212403 15 0 0.0 0.0 0.00 0.00 0.00 74 1009.9
20260509212203 16 0 0.0 0.0 0.00 0.00 0.00 74 1009.9
20260509212003 16 0 0.0 0.0 0.00 0.00 0.00 74 1010.0
20260509211545 15 73 0.0 0.0 0.00 0.00 0.00 73 1010.4
20260509211505 15 73 0.0 0.0 0.00 0.00 0.00 73 1010.3
20260509211403 16 73 0.0 0.0 0.00 0.00 0.00 72 1010.3
20260509211203 15 0 0.0 0.0 0.00 0.00 0.00 74 1010.0
20260509211003 15 0 0.0 0.0 0.00 0.00 0.00 71 1010.0
20260509210902 16 73 0.0 0.0 0.00 0.00 0.00 72 1010.3
20260509210604 15 0 0.0 0.0 0.00 0.00 0.00 72 1010.0
20260509210403 15 0 0.0 0.0 0.00 0.00 0.00 71 1010.0
20260509210203 16 0 0.0 0.0 0.00 0.00 0.00 70 1009.9
20260509210055 15 74 0.0 0.0 0.00 0.00 0.00 71 1010.3
20260509210009 15 74 0.0 0.0 0.00 0.00 0.00 70 1010.3
20260509210003 16 0 0.0 0.0 0.00 0.00 0.00 70 1009.9
20260509205803 15 0 0.0 0.0 0.00 0.00 0.00 71 1009.9
20260509205604 15 0 0.0 0.0 0.00 0.00 0.00 73 1009.9
20260509205403 15 74 0.0 0.0 0.00 0.00 0.00 72 1010.3
20260509205203 15 0 0.0 0.0 0.00 0.00 0.00 71 1009.9
20260509205003 15 0 0.0 0.0 0.00 0.00 0.00 72 1009.9
20260509204903 15 74 0.0 0.0 0.00 0.00 0.00 72 1010.3
20260509204804 15 0 0.0 0.0 0.00 0.00 0.00 73 1009.9
20260509204603 15 0 0.0 0.0 0.00 0.00 0.00 73 1009.9
20260509204544 15 74 0.0 0.0 0.00 0.00 0.00 73 1010.3
20260509204507 15 74 0.0 0.0 0.00 0.00 0.00 73 1010.3
20260509204403 15 0 0.0 0.0 0.00 0.00 0.00 71 1010.0
20260509204204 15 0 0.0 0.0 0.00 0.00 0.00 72 1010.0
20260509204003 15 0 0.0 0.0 0.00 0.00 0.00 73 1009.9
20260509203903 15 75 0.0 0.0 0.00 0.00 0.00 73 1010.3
20260509203803 15 0 0.0 0.0 0.00 0.00 0.00 73 1009.9
20260509203403 15 75 0.0 0.0 0.00 0.00 0.00 75 1010.3
20260509203203 15 0 0.0 0.0 0.00 0.00 0.00 74 1010.0
20260509203049 15 75 0.0 0.0 0.00 0.00 0.00 74 1010.3
20260509203007 15 75 0.0 0.0 0.00 0.00 0.00 74 1010.3
20260509203003 15 0 0.0 0.0 0.00 0.00 0.00 74 1009.9
20260509202902 15 75 0.0 0.0 0.00 0.00 0.00 72 1010.3
20260509202203 15 0 0.0 0.0 0.00 0.00 0.00 72 1009.9
20260509202003 16 0 0.0 0.0 0.00 0.00 0.00 70 1010.0
20260509201903 16 75 0.0 0.0 0.00 0.00 0.00 72 1010.3
20260509201803 16 0 0.0 0.0 0.00 0.00 0.00 72 1010.0
20260509201603 16 0 0.0 0.0 0.00 0.00 0.00 70 1010.1
20260509201543 15 75 0.0 0.0 0.00 0.00 0.00 70 1010.4
20260509201507 15 75 0.0 0.0 0.00 0.00 0.00 71 1010.4
20260509201403 16 0 0.0 0.0 0.00 0.00 0.00 71 1010.1
20260509201203 16 0 0.0 0.0 0.00 0.00 0.00 73 1010.1
20260509201005 16 0 0.0 0.0 0.00 0.00 0.00 73 1010.0
20260509200903 16 75 0.0 0.0 0.00 0.00 0.00 72 1010.4
20260509200803 16 0 0.0 0.0 0.00 0.00 0.00 72 1010.1
20260509200603 16 0 0.0 0.0 0.00 0.00 0.00 72 1010.1
20260509200403 16 75 0.0 0.0 0.00 0.00 0.00 72 1010.5
20260509200204 16 0 0.0 0.0 0.00 0.00 0.00 72 1010.2
20260509200055 15 75 0.0 0.0 0.00 0.00 0.00 72 1010.6
20260509200013 15 75 0.0 0.0 0.00 0.00 0.00 72 1010.6
20260509200004 16 0 0.0 0.0 0.00 0.00 0.00 72 1010.3
20260509195904 16 75 0.0 0.0 0.00 0.00 0.00 70 1010.6
20260509195804 16 0 0.0 0.0 0.00 0.00 0.00 71 1010.2
20260509195603 16 0 0.0 0.0 0.00 0.00 0.00 70 1010.3
20260509195404 16 75 0.0 0.0 0.00 0.00 0.00 69 1010.6
20260509195204 16 0 0.0 0.0 0.00 0.00 0.00 69 1010.2
20260509195003 16 0 0.0 0.0 0.00 0.00 0.00 68 1010.3
20260509194902 16 75 0.0 0.0 0.00 0.00 0.00 70 1010.7
20260509194803 16 0 0.0 0.0 0.00 0.00 0.00 69 1010.3
20260509194603 16 0 0.0 0.0 0.00 0.00 0.00 69 1010.3
20260509194554 16 107 0.0 0.0 0.00 0.00 0.00 69 1010.6
20260509194519 16 107 0.0 0.0 0.00 0.00 0.00 68 1010.6
20260509194403 16 107 0.0 0.0 0.00 0.00 0.00 66 1010.6
20260509194204 16 0 0.0 0.0 0.00 0.00 0.00 67 1010.2
20260509194004 16 0 0.0 0.0 0.00 0.00 0.00 72 1010.3
20260509193903 16 107 0.0 0.0 0.00 0.00 0.00 70 1010.6
20260509193803 16 0 0.0 0.0 0.00 0.00 0.00 70 1010.3
20260509193604 16 0 0.0 0.0 0.00 0.00 0.00 70 1010.4
20260509193403 16 0 0.0 0.0 0.00 0.00 0.00 70 1010.4
20260509193126 16 107 0.0 0.0 0.00 0.00 0.00 69 1010.7
20260509193025 16 107 0.0 0.0 0.00 0.00 0.00 68 1010.7
20260509193003 16 0 0.0 0.0 0.00 0.00 0.00 67 1010.3
20260509192902 16 107 0.0 1.6 0.00 0.00 0.00 68 1010.7
20260509192603 16 0 0.0 1.6 0.00 0.00 0.00 68 1010.4
20260509192203 16 0 0.0 0.0 0.00 0.00 0.00 66 1010.3
20260509192004 16 0 0.0 0.0 0.00 0.00 0.00 67 1010.3
20260509191904 16 107 0.0 3.2 0.00 0.00 0.00 70 1010.7
20260509191803 16 0 0.0 3.2 0.00 0.00 0.00 69 1010.4
20260509191531 16 107 0.0 0.0 0.00 0.00 0.00 68 1010.8
20260509191403 16 107 0.0 0.0 0.00 0.00 0.00 68 1010.6
20260509191204 16 0 0.0 0.0 0.00 0.00 0.00 68 1010.2
20260509191003 16 0 0.0 0.0 0.00 0.00 0.00 71 1010.3
20260509190902 16 74 0.0 0.0 0.00 0.00 0.00 71 1010.7
20260509190804 16 0 0.0 0.0 0.00 0.00 0.00 70 1010.3
20260509190603 16 0 0.0 0.0 0.00 0.00 0.00 72 1010.4
20260509190404 16 0 0.0 0.0 0.00 0.00 0.00 71 1010.4
20260509190204 16 0 0.0 0.0 0.00 0.00 0.00 71 1010.5
20260509190047 15 348 0.0 0.0 0.00 0.00 0.00 73 1010.9
20260509190004 15 348 0.0 0.0 0.00 0.00 0.00 73 1010.9
20260509185904 15 348 0.0 0.0 0.00 0.00 0.00 71 1011.0
20260509185604 15 0 0.0 0.0 0.00 0.00 0.00 75 1010.6
20260509185403 15 348 0.0 0.0 0.00 0.00 0.00 71 1011.1
20260509185204 15 0 0.0 0.0 0.00 0.00 0.00 69 1010.7
20260509185003 15 0 0.0 1.6 0.00 0.00 0.00 69 1010.8
20260509184903 15 349 0.0 1.6 0.00 0.00 0.00 70 1011.2
20260509184803 15 0 0.0 0.0 0.00 0.00 0.00 70 1010.9
20260509184603 15 0 0.0 0.0 0.00 0.00 0.00 71 1010.8
20260509184548 14 349 0.0 0.0 0.00 0.00 0.00 71 1011.2
20260509184526 14 348 0.0 0.0 0.00 0.00 0.00 71 1011.2
20260509184403 15 0 0.0 0.0 0.00 0.00 0.00 72 1010.8
20260509184204 15 0 0.0 0.0 0.00 0.00 0.00 72 1010.9
20260509183904 15 336 0.0 0.0 0.00 0.00 0.00 74 1011.5
20260509183803 15 0 0.0 0.0 0.00 0.00 0.00 74 1011.2
20260509183604 15 0 0.0 0.0 0.00 0.00 0.00 74 1011.2
20260509183403 15 243 0.0 0.0 0.00 0.00 0.00 71 1011.7
20260509183204 15 0 0.0 0.0 0.00 0.00 0.00 71 1011.3
20260509183055 14 243 0.0 0.0 0.00 0.00 0.00 73 1011.7
20260509183026 14 242 0.0 0.0 0.00 0.00 0.00 73 1011.7
20260509183003 15 0 0.0 0.0 0.00 0.00 0.00 74 1011.4
20260509182902 15 242 0.0 0.0 0.00 0.00 0.00 74 1011.8
20260509182803 15 0 0.0 0.0 0.00 0.00 0.00 73 1011.4
20260509182603 15 0 0.0 0.0 0.00 0.00 0.00 72 1011.4
20260509182403 15 243 0.0 0.0 0.00 0.00 0.00 71 1011.9
20260509182203 15 0 0.0 0.0 0.00 0.00 0.00 72 1011.6
20260509182003 15 0 0.0 0.0 0.00 0.00 0.00 71 1011.6
20260509181903 15 243 0.0 0.0 0.00 0.00 0.00 69 1012.0
20260509181803 15 0 0.0 0.0 0.00 0.00 0.00 69 1011.7
20260509181528 15 243 0.0 0.0 0.00 0.00 0.00 69 1012.0
20260509181404 15 0 0.0 0.0 0.00 0.00 0.00 69 1011.6
20260509181003 15 0 0.0 0.0 0.00 0.00 0.00 69 1011.6
20260509180903 15 243 0.0 0.0 0.00 0.00 0.00 68 1012.0
20260509180804 15 0 0.0 0.0 0.00 0.00 0.00 70 1011.6
20260509180403 15 243 0.0 0.0 0.00 0.00 0.00 71 1012.0
20260509180203 15 0 0.0 0.0 0.00 0.00 0.00 70 1011.5
20260509180035 15 242 0.0 0.0 0.00 0.00 0.00 70 1011.9
20260509180003 15 0 0.0 0.0 0.00 0.00 0.00 69 1011.5
20260509175903 15 243 0.0 0.0 0.00 0.00 0.00 69 1011.9
20260509175803 15 0 0.0 0.0 0.00 0.00 0.00 69 1011.5
20260509175604 15 0 0.0 0.0 0.00 0.00 0.00 70 1011.5
20260509175204 15 0 0.0 0.0 0.00 0.00 0.00 72 1011.6
20260509174903 15 243 0.0 0.0 0.00 0.00 0.00 71 1012.0
20260509174802 15 0 0.0 0.0 0.00 0.00 0.00 70 1011.6
20260509174603 15 0 0.0 0.0 0.00 0.00 0.00 69 1011.7
20260509174539 15 243 0.0 0.0 0.00 0.00 0.00 68 1012.0
20260509174404 15 0 0.0 0.0 0.00 0.00 0.00 69 1011.7
20260509174003 15 0 0.0 0.0 0.00 0.00 0.00 69 1011.5
20260509173903 15 243 0.0 0.0 0.00 0.00 0.00 69 1011.9
20260509173803 15 0 0.0 0.0 0.00 0.00 0.00 71 1011.5
20260509173403 15 243 0.0 0.0 0.00 0.00 0.00 71 1012.0
20260509173203 15 0 0.0 0.0 0.00 0.00 0.00 72 1011.6
20260509173056 15 243 0.0 0.0 0.00 0.00 0.00 70 1012.0
20260509173013 15 243 0.0 0.0 0.00 0.00 0.00 70 1012.1
20260509173004 15 0 0.0 0.0 0.00 0.00 0.00 70 1011.7
20260509172903 15 243 0.0 0.0 0.00 0.00 0.00 70 1012.1
20260509172804 15 0 0.0 0.0 0.00 0.00 0.00 70 1011.7
20260509172603 15 0 0.0 0.0 0.00 0.00 0.00 70 1011.7
20260509172203 15 0 0.0 0.0 0.00 0.00 0.00 71 1011.7
20260509172004 15 0 0.0 0.0 0.00 0.00 0.00 72 1011.7
20260509171617 15 243 0.0 0.0 0.00 0.00 0.00 71 1012.2
20260509171525 15 242 0.0 0.0 0.00 0.00 0.00 71 1012.1
20260509171205 15 0 0.0 0.0 0.00 0.00 0.00 71 1011.7
20260509171003 15 0 0.0 0.0 0.00 0.00 0.00 71 1011.7
20260509170904 15 242 0.0 0.0 0.00 0.00 0.00 70 1012.1
20260509170804 15 0 0.0 0.0 0.00 0.00 0.00 69 1011.7
20260509170603 15 0 0.0 0.0 0.00 0.00 0.00 69 1011.8
20260509170404 15 0 0.0 0.0 0.00 0.00 0.00 69 1011.8
20260509170036 15 243 0.0 0.0 0.00 0.00 0.00 69 1012.1
20260509170004 15 0 0.0 0.0 0.00 0.00 0.00 69 1011.7
20260509165902 15 243 0.0 0.0 0.00 0.00 0.00 69 1012.1
20260509165803 15 0 0.0 0.0 0.00 0.00 0.00 68 1011.8
20260509165605 15 0 0.0 0.0 0.00 0.00 0.00 68 1011.8
20260509165403 15 0 0.0 0.0 0.00 0.00 0.00 67 1011.8
20260509165203 15 0 0.0 0.0 0.00 0.00 0.00 68 1011.8
20260509165004 15 0 0.0 0.0 0.00 0.00 0.00 66 1011.8
20260509164903 15 214 0.0 0.0 0.00 0.00 0.00 66 1012.2
20260509164803 15 0 0.0 0.0 0.00 0.00 0.00 66 1011.9
20260509164546 15 214 0.0 0.0 0.00 0.00 0.00 66 1012.2
20260509164403 15 214 0.0 0.0 0.00 0.00 0.00 67 1012.3
20260509164204 15 0 0.0 0.0 0.00 0.00 0.00 66 1012.0
20260509164004 15 0 0.0 0.0 0.00 0.00 0.00 66 1011.9
20260509163903 15 152 0.0 0.0 0.00 0.00 0.00 64 1012.2
20260509163803 15 0 0.0 0.0 0.00 0.00 0.00 63 1011.8
20260509163603 15 0 0.0 0.0 0.00 0.00 0.00 63 1011.8
20260509163404 15 0 0.0 0.0 0.00 0.00 0.00 65 1011.8
20260509163203 15 0 0.0 0.0 0.00 0.00 0.00 64 1011.8
20260509163051 15 152 0.0 0.0 0.00 0.00 0.00 64 1012.2
20260509163010 15 309 0.0 0.0 0.00 0.00 0.00 63 1012.2
20260509163003 16 0 0.0 0.0 0.00 0.00 0.00 63 1011.9
20260509162902 16 309 0.0 0.0 0.00 0.00 0.00 64 1012.2
20260509162803 16 0 0.0 0.0 0.00 0.00 0.00 64 1011.9
20260509162604 16 0 0.0 0.0 0.00 0.00 0.00 64 1011.9
20260509162203 16 0 0.0 0.0 0.00 0.00 0.00 61 1012.0
20260509162004 16 0 0.0 0.0 0.00 0.00 0.00 62 1012.0
20260509161904 16 309 0.0 0.0 0.00 0.00 0.00 62 1012.3
20260509161803 16 0 0.0 0.0 0.00 0.00 0.00 62 1011.9
20260509161603 16 0 0.0 0.0 0.00 0.00 0.00 62 1012.0
20260509161558 16 309 0.0 0.0 0.00 0.00 0.00 62 1012.3
20260509161523 16 309 0.0 0.0 0.00 0.00 0.00 62 1012.3
20260509161403 16 313 0.0 0.0 0.00 0.00 0.00 61 1012.3
20260509161203 16 0 1.6 0.0 0.00 0.00 0.00 61 1011.8
20260509161005 16 0 1.6 0.0 0.00 0.00 0.00 59 1011.8
20260509160903 16 309 0.0 4.8 0.00 0.00 0.00 61 1012.1
20260509160804 16 0 1.6 0.0 0.00 0.00 0.00 61 1011.8
20260509160604 17 300 1.6 8.0 0.00 0.00 0.00 62 1011.7
20260509160405 17 295 1.6 8.0 0.00 0.00 0.00 58 1011.7
20260509160203 17 295 1.6 6.4 0.00 0.00 0.00 59 1011.7
20260509160030 16 296 1.6 0.0 0.00 0.00 0.00 58 1012.0
20260509155903 17 295 3.2 4.8 0.00 0.00 0.00 59 1012.0
20260509155803 17 0 0.0 6.4 0.00 0.00 0.00 59 1011.7
20260509155603 17 0 0.0 4.8 0.00 0.00 0.00 58 1011.7
20260509155404 17 0 0.0 4.8 0.00 0.00 0.00 61 1011.7
20260509155204 16 0 0.0 0.0 0.00 0.00 0.00 62 1011.7
20260509155004 16 0 0.0 0.0 0.00 0.00 0.00 67 1011.8
20260509154902 16 130 0.0 0.0 0.00 0.00 0.00 65 1012.2
20260509154803 16 0 0.0 0.0 0.00 0.00 0.00 65 1011.8
20260509154603 16 0 0.0 0.0 0.00 0.00 0.00 66 1011.8
20260509154540 16 130 0.0 0.0 0.00 0.00 0.00 66 1012.1
20260509154503 16 129 0.0 0.0 0.00 0.00 0.00 66 1012.1
20260509154403 16 0 0.0 0.0 0.00 0.00 0.00 66 1011.8
20260509154203 16 0 0.0 0.0 0.00 0.00 0.00 63 1011.7
20260509154004 16 0 0.0 0.0 0.00 0.00 0.00 65 1011.8
20260509153903 15 130 0.0 0.0 0.00 0.00 0.00 65 1012.1
20260509153803 15 0 0.0 0.0 0.00 0.00 0.00 66 1011.8
20260509153603 15 0 0.0 0.0 0.00 0.00 0.00 66 1011.8
20260509153403 15 263 0.0 0.0 0.00 0.00 0.00 64 1012.2
20260509153204 15 0 0.0 0.0 0.00 0.00 0.00 68 1011.9
20260509153044 15 263 0.0 0.0 0.00 0.00 0.00 65 1012.2
20260509153006 15 263 0.0 0.0 0.00 0.00 0.00 65 1012.2
20260509153003 15 0 0.0 0.0 0.00 0.00 0.00 69 1011.8
20260509152903 15 263 0.0 0.0 0.00 0.00 0.00 68 1012.2
20260509152803 15 0 0.0 0.0 0.00 0.00 0.00 68 1011.9
20260509152605 15 0 0.0 0.0 0.00 0.00 0.00 67 1011.9
20260509152403 15 263 0.0 0.0 0.00 0.00 0.00 66 1012.4
20260509152004 15 0 0.0 0.0 0.00 0.00 0.00 65 1012.1
20260509151904 15 263 0.0 0.0 0.00 0.00 0.00 64 1012.5
20260509151804 15 0 0.0 0.0 0.00 0.00 0.00 65 1012.2
20260509151603 15 0 0.0 0.0 0.00 0.00 0.00 67 1012.1
20260509151557 15 263 0.0 0.0 0.00 0.00 0.00 67 1012.5
20260509151513 14 263 0.0 0.0 0.00 0.00 0.00 65 1012.5
20260509151404 15 0 0.0 0.0 0.00 0.00 0.00 65 1012.1
20260509151203 15 0 0.0 0.0 0.00 0.00 0.00 68 1012.3
20260509151003 15 0 0.0 0.0 0.00 0.00 0.00 67 1012.4
20260509150903 15 263 0.0 0.0 0.00 0.00 0.00 68 1012.8
20260509150804 15 0 0.0 0.0 0.00 0.00 0.00 68 1012.4
20260509150604 15 0 0.0 0.0 0.00 0.00 0.00 66 1012.4
20260509150404 15 0 0.0 0.0 0.00 0.00 0.00 68 1012.5
20260509150203 15 0 0.0 0.0 0.00 0.00 0.00 67 1012.6
20260509150027 14 263 0.0 0.0 0.00 0.00 0.00 67 1013.0
20260509150005 15 0 0.0 0.0 0.00 0.00 0.00 68 1012.6
20260509145903 15 263 0.0 0.0 0.00 0.00 0.00 70 1012.9
20260509145803 15 0 0.0 0.0 0.00 0.00 0.00 69 1012.5
20260509145603 15 0 0.0 0.0 0.00 0.00 0.00 68 1012.5
20260509145403 15 0 0.0 1.6 0.00 0.00 0.00 67 1012.6
20260509145203 15 0 0.0 0.0 0.00 0.00 0.00 67 1012.6
20260509145004 15 0 0.0 8.0 0.00 0.00 0.00 65 1012.5
20260509144803 15 0 0.0 0.0 0.00 0.00 0.00 67 1012.6
20260509144604 15 0 0.0 0.0 0.00 0.00 0.00 69 1012.6
20260509144534 14 125 0.0 0.0 0.00 0.00 0.00 68 1012.9
20260509144403 15 126 0.0 0.0 0.00 0.00 0.00 67 1012.9
20260509144203 14 0 0.0 0.0 0.00 0.00 0.00 69 1012.6
20260509144003 14 0 0.0 0.0 0.00 0.00 0.00 70 1012.6
20260509143803 14 0 0.0 0.0 0.00 0.00 0.00 66 1012.5
20260509143204 14 0 0.0 0.0 0.00 0.00 0.00 70 1012.5
20260509143038 14 126 0.0 0.0 0.00 0.00 0.00 73 1012.9
20260509143004 14 0 0.0 0.0 0.00 0.00 0.00 72 1012.6
20260509143002 14 125 0.0 0.0 0.00 0.00 0.00 72 1012.9
20260509142903 14 126 0.0 0.0 0.00 0.00 0.00 71 1013.0
20260509142803 14 0 0.0 0.0 0.00 0.00 0.00 71 1012.6
20260509142604 14 0 0.0 0.0 0.00 0.00 0.00 70 1012.7
20260509142405 14 0 0.0 0.0 0.00 0.00 0.00 70 1012.6
20260509142203 14 0 0.0 0.0 0.00 0.00 0.00 69 1012.6
20260509142003 13 0 0.0 0.0 0.00 0.00 0.00 72 1012.6
20260509141903 13 126 0.0 0.0 0.00 0.00 0.00 73 1012.9
20260509141803 13 0 0.0 0.0 0.00 0.00 0.00 73 1012.6
20260509141603 13 0 0.0 0.0 0.00 0.00 0.00 73 1012.5
20260509141551 13 125 0.0 0.0 0.00 0.00 0.00 73 1012.9
20260509141520 13 126 0.0 0.0 0.00 0.00 0.00 72 1012.9
20260509141404 13 0 0.0 0.0 0.00 0.00 0.00 75 1012.5
20260509141203 13 0 0.0 0.0 0.00 0.00 0.00 74 1012.5
20260509141003 13 0 0.0 0.0 0.00 0.00 0.00 73 1012.5
20260509140903 13 126 0.0 0.0 0.00 0.00 0.00 74 1012.8
20260509140804 13 0 0.0 0.0 0.00 0.00 0.00 74 1012.5
20260509140604 13 0 0.0 0.0 0.00 0.00 0.00 73 1012.4
20260509140403 13 126 0.0 0.0 0.00 0.00 0.00 71 1012.7
20260509140052 13 126 0.0 0.0 0.00 0.00 0.00 72 1012.7
20260509140029 13 125 0.0 0.0 0.00 0.00 0.00 72 1012.7
20260509135903 13 126 0.0 0.0 0.00 0.00 0.00 72 1012.6
20260509135804 13 0 0.0 0.0 0.00 0.00 0.00 72 1012.3
20260509135604 13 0 0.0 0.0 0.00 0.00 0.00 73 1012.2
20260509135404 13 126 0.0 0.0 0.00 0.00 0.00 72 1012.5
20260509135003 13 0 0.0 0.0 0.00 0.00 0.00 71 1012.2
20260509134903 13 160 0.0 0.0 0.00 0.00 0.00 72 1012.5
20260509134603 13 0 0.0 0.0 0.00 0.00 0.00 73 1012.1
20260509134538 13 160 0.0 0.0 0.00 0.00 0.00 72 1012.5
20260509134203 13 0 0.0 0.0 0.00 0.00 0.00 70 1012.1
20260509134003 13 0 0.0 0.0 0.00 0.00 0.00 68 1012.0
20260509133903 13 160 0.0 3.2 0.00 0.00 0.00 68 1012.4
20260509133804 13 0 0.0 0.0 0.00 0.00 0.00 69 1012.1
20260509133203 13 0 0.0 0.0 0.00 0.00 0.00 69 1012.1
20260509133042 13 236 0.0 0.0 0.00 0.00 0.00 69 1012.5
20260509133004 13 0 0.0 0.0 0.00 0.00 0.00 70 1012.2
20260509132904 13 236 0.0 0.0 0.00 0.00 0.00 70 1012.4
20260509132603 13 0 0.0 0.0 0.00 0.00 0.00 70 1012.2
20260509132403 13 0 0.0 0.0 0.00 0.00 0.00 70 1012.2
20260509132204 13 0 0.0 0.0 0.00 0.00 0.00 71 1012.1
20260509132004 13 0 0.0 0.0 0.00 0.00 0.00 71 1012.1
20260509131903 13 229 1.6 4.8 0.00 0.00 0.00 72 1012.4
20260509131803 13 0 0.0 6.4 0.00 0.00 0.00 72 1012.1
20260509131613 13 360 0.0 0.0 0.00 0.00 0.00 70 1012.5
20260509131603 13 0 0.0 0.0 0.00 0.00 0.00 72 1012.2
20260509131510 13 360 0.0 0.0 0.00 0.00 0.00 70 1012.5
20260509131404 13 0 0.0 0.0 0.00 0.00 0.00 74 1012.1
20260509130902 13 44 0.0 1.6 0.00 0.00 0.00 73 1012.6
20260509130803 13 0 0.0 1.6 0.00 0.00 0.00 73 1012.3
20260509130403 13 225 0.0 3.2 0.00 0.00 0.00 71 1012.6
20260509130205 13 0 0.0 3.2 0.00 0.00 0.00 75 1012.2
20260509130008 13 225 0.0 0.0 0.00 0.00 0.00 75 1012.6
20260509130003 13 0 0.0 0.0 0.00 0.00 0.00 75 1012.1
20260509125903 13 225 0.0 0.0 0.00 0.00 0.00 74 1012.5
20260509125203 13 0 0.0 0.0 0.00 0.00 0.00 74 1012.1
20260509125004 13 0 0.0 0.0 0.00 0.00 0.00 76 1012.1
20260509124805 13 0 0.0 0.0 0.00 0.00 0.00 77 1012.1
20260509124603 13 0 0.0 0.0 0.00 0.00 0.00 77 1012.1
20260509124552 12 225 0.0 0.0 0.00 0.00 0.00 77 1012.5
20260509124510 12 225 0.0 0.0 0.00 0.00 0.00 77 1012.5
20260509124403 12 225 0.0 0.0 0.00 0.00 0.00 75 1012.5
20260509124203 12 0 0.0 0.0 0.00 0.00 0.00 75 1012.1
20260509124004 12 0 0.0 0.0 0.00 0.00 0.00 75 1012.2
20260509123804 12 0 0.0 0.0 0.00 0.00 0.00 75 1012.1
20260509123603 12 0 0.0 0.0 0.00 0.00 0.00 76 1012.0
20260509123403 12 221 0.0 0.0 0.00 0.00 0.00 78 1012.4
20260509123204 12 0 0.0 0.0 0.00 0.00 0.00 77 1011.9
20260509123103 12 221 0.0 0.0 0.00 0.00 0.00 76 1012.3
20260509123020 12 221 0.0 0.0 0.00 0.00 0.00 74 1012.3
20260509123004 12 0 0.0 0.0 0.00 0.00 0.00 74 1011.9
20260509122903 12 221 0.0 0.0 0.00 0.00 0.00 74 1012.3
20260509122803 12 0 0.0 0.0 0.00 0.00 0.00 74 1011.9
20260509122603 12 0 0.0 0.0 0.00 0.00 0.00 75 1012.0
20260509122403 12 0 0.0 0.0 0.00 0.00 0.00 75 1012.0
20260509122204 12 0 0.0 0.0 0.00 0.00 0.00 76 1012.0
20260509122003 12 0 0.0 1.6 0.00 0.00 0.00 79 1012.0
20260509121903 12 88 0.0 1.6 0.00 0.00 0.00 79 1012.4
20260509121804 12 0 0.0 1.6 0.00 0.00 0.00 79 1012.0
20260509121603 12 0 0.0 0.0 0.00 0.00 0.00 78 1012.0
20260509121521 12 15 0.0 0.0 0.00 0.00 0.00 77 1012.4
20260509121403 12 70 0.0 0.0 0.00 0.00 0.00 78 1012.4
20260509121203 12 0 0.0 0.0 0.00 0.00 0.00 80 1012.0
20260509121004 12 0 0.0 0.0 0.00 0.00 0.00 79 1012.0
20260509120905 12 62 0.0 0.0 0.00 0.00 0.00 79 1012.4
20260509120803 12 0 0.0 0.0 0.00 0.00 0.00 80 1012.0
20260509120604 12 0 0.0 0.0 0.00 0.00 0.00 79 1012.0
20260509120403 12 0 0.0 0.0 0.00 0.00 0.00 80 1012.0
20260509120203 12 0 0.0 1.6 0.00 0.00 0.00 80 1012.0
20260509120026 11 62 0.0 0.0 0.00 0.00 0.00 78 1012.4
20260509115603 11 0 0.0 0.0 0.00 0.00 0.00 80 1012.1
20260509115404 11 0 0.0 0.0 0.00 0.00 0.00 79 1012.1
20260509115203 11 0 0.0 0.0 0.00 0.00 0.00 81 1012.1
20260509115003 11 0 0.0 0.0 0.00 0.00 0.00 82 1012.1
20260509114903 11 103 0.0 1.6 0.00 0.00 0.00 82 1012.5
20260509114803 11 0 0.0 0.0 0.00 0.00 0.00 82 1012.0
20260509114531 11 102 0.0 0.0 0.00 0.00 0.00 80 1012.5
20260509114403 11 196 0.0 9.7 0.00 0.00 0.00 82 1012.5
20260509114204 11 0 0.0 0.0 0.00 0.00 0.00 81 1012.0
20260509114003 11 0 0.0 0.0 0.00 0.00 0.00 82 1012.0
20260509113903 11 208 0.0 0.0 0.00 0.00 0.00 81 1012.4
20260509113803 11 0 0.0 0.0 0.00 0.00 0.00 81 1012.0
20260509113603 11 0 0.0 0.0 0.00 0.00 0.00 81 1011.9
20260509113404 11 0 0.0 0.0 0.00 0.00 0.00 82 1011.9
20260509113203 11 0 0.0 0.0 0.00 0.00 0.00 82 1011.9
20260509113036 10 208 0.0 0.0 0.00 0.00 0.00 82 1012.3
20260509113003 11 0 0.0 0.0 0.00 0.00 0.00 82 1011.9
20260509112903 11 208 0.0 0.0 0.00 0.00 0.00 81 1012.3
20260509112804 11 0 0.0 0.0 0.00 0.00 0.00 82 1011.9
20260509112603 11 0 0.0 0.0 0.00 0.00 0.00 82 1011.8
20260509112404 11 0 0.0 0.0 0.00 0.00 0.00 82 1011.8
20260509112204 11 0 0.0 0.0 0.00 0.00 0.00 82 1011.8
20260509112003 11 0 0.0 0.0 0.00 0.00 0.00 82 1011.8
20260509111904 10 205 0.0 0.0 0.00 0.00 0.00 81 1012.2
20260509111804 10 0 0.0 0.0 0.00 0.00 0.00 81 1011.8
20260509111604 10 0 0.0 0.0 0.00 0.00 0.00 82 1011.8
20260509111544 10 205 0.0 0.0 0.00 0.00 0.00 82 1012.2
20260509111507 10 205 0.0 0.0 0.00 0.00 0.00 82 1012.2
20260509111404 10 0 0.0 0.0 0.00 0.00 0.00 82 1011.7
20260509111205 10 0 0.0 0.0 0.00 0.00 0.00 82 1011.7
20260509111003 10 0 0.0 0.0 0.00 0.00 0.00 82 1011.7
20260509110903 10 24 0.0 0.0 0.00 0.00 0.00 82 1012.1
20260509110804 10 0 0.0 0.0 0.00 0.00 0.00 82 1011.7
20260509110603 10 0 0.0 0.0 0.00 0.00 0.00 82 1011.7
20260509110404 10 0 0.0 0.0 0.00 0.00 0.00 82 1011.7
20260509110203 10 0 0.0 0.0 0.00 0.00 0.00 81 1011.6
20260509110104 10 24 0.0 0.0 0.00 0.00 0.00 82 1012.0
20260509110023 10 24 0.0 0.0 0.00 0.00 0.00 82 1012.0
20260509110004 10 0 0.0 0.0 0.00 0.00 0.00 81 1011.6
20260509105903 10 24 0.0 0.0 0.00 0.00 0.00 82 1012.0
20260509105803 10 0 0.0 0.0 0.00 0.00 0.00 82 1011.6
20260509105604 10 0 0.0 0.0 0.00 0.00 0.00 82 1011.6
20260509105404 10 0 0.0 0.0 0.00 0.00 0.00 82 1011.6
20260509105204 10 0 0.0 0.0 0.00 0.00 0.00 82 1011.5
20260509105004 10 0 0.0 0.0 0.00 0.00 0.00 81 1011.6
20260509104904 10 24 0.0 0.0 0.00 0.00 0.00 81 1011.9
20260509104605 10 0 0.0 0.0 0.00 0.00 0.00 81 1011.6
20260509104539 10 24 0.0 0.0 0.00 0.00 0.00 81 1011.9
20260509104403 10 24 0.0 0.0 0.00 0.00 0.00 81 1011.9
20260509104205 10 0 0.0 0.0 0.00 0.00 0.00 80 1011.5
20260509104003 10 0 0.0 0.0 0.00 0.00 0.00 80 1011.6
20260509103903 10 24 0.0 0.0 0.00 0.00 0.00 80 1012.0
20260509103805 10 0 0.0 0.0 0.00 0.00 0.00 80 1011.6
20260509103603 10 0 0.0 0.0 0.00 0.00 0.00 80 1011.6
20260509103204 10 0 0.0 0.0 0.00 0.00 0.00 80 1011.5
20260509103036 10 47 0.0 0.0 0.00 0.00 0.00 80 1012.0
20260509103004 10 0 0.0 0.0 0.00 0.00 0.00 80 1011.6
20260509102904 10 338 0.0 0.0 0.00 0.00 0.00 80 1012.0
20260509102804 10 0 0.0 0.0 0.00 0.00 0.00 80 1011.6
20260509102603 10 0 0.0 0.0 0.00 0.00 0.00 79 1011.6
20260509102004 10 0 0.0 0.0 0.00 0.00 0.00 79 1011.7
20260509101904 10 338 0.0 0.0 0.00 0.00 0.00 79 1012.0
20260509101803 10 0 0.0 0.0 0.00 0.00 0.00 79 1011.6
20260509101605 10 0 0.0 0.0 0.00 0.00 0.00 80 1011.6
20260509101539 10 338 0.0 0.0 0.00 0.00 0.00 79 1012.0
20260509101502 10 338 0.0 0.0 0.00 0.00 0.00 79 1012.0
20260509101403 10 0 0.0 0.0 0.00 0.00 0.00 79 1011.6
20260509101203 10 0 0.0 0.0 0.00 0.00 0.00 79 1011.5
20260509101004 10 0 0.0 0.0 0.00 0.00 0.00 79 1011.4
20260509100903 10 338 0.0 0.0 0.00 0.00 0.00 79 1011.8
20260509100803 10 0 0.0 0.0 0.00 0.00 0.00 79 1011.5
20260509100605 11 0 0.0 0.0 0.00 0.00 0.00 79 1011.5
20260509100404 11 0 0.0 0.0 0.00 0.00 0.00 79 1011.5
20260509100204 11 0 0.0 0.0 0.00 0.00 0.00 79 1011.3
20260509100042 10 338 0.0 0.0 0.00 0.00 0.00 79 1011.8
20260509100006 10 338 0.0 0.0 0.00 0.00 0.00 79 1011.8
20260509095403 11 338 0.0 0.0 0.00 0.00 0.00 80 1011.7
20260509095003 11 0 0.0 0.0 0.00 0.00 0.00 76 1011.2
20260509094903 11 338 0.0 0.0 0.00 0.00 0.00 74 1011.7
20260509094804 11 0 0.0 0.0 0.00 0.00 0.00 74 1011.3
20260509094603 11 0 0.0 0.0 0.00 0.00 0.00 74 1011.3
20260509094549 10 338 0.0 0.0 0.00 0.00 0.00 73 1011.6
20260509094510 10 338 0.0 0.0 0.00 0.00 0.00 73 1011.7
20260509094404 11 338 0.0 0.0 0.00 0.00 0.00 73 1011.7
20260509094205 11 0 0.0 0.0 0.00 0.00 0.00 74 1011.3
20260509093903 11 338 0.0 0.0 0.00 0.00 0.00 75 1011.7
20260509093804 11 0 0.0 0.0 0.00 0.00 0.00 75 1011.2
20260509093404 11 0 0.0 0.0 0.00 0.00 0.00 75 1011.2
20260509093203 11 0 0.0 0.0 0.00 0.00 0.00 75 1011.3
20260509093053 10 338 0.0 0.0 0.00 0.00 0.00 74 1011.7
20260509093024 10 338 0.0 0.0 0.00 0.00 0.00 74 1011.8
20260509093003 11 0 0.0 0.0 0.00 0.00 0.00 74 1011.4
20260509092904 11 338 0.0 0.0 0.00 0.00 0.00 74 1011.9
20260509092804 11 0 0.0 0.0 0.00 0.00 0.00 74 1011.4
20260509092603 11 0 0.0 0.0 0.00 0.00 0.00 74 1011.4
20260509092203 11 0 0.0 0.0 0.00 0.00 0.00 75 1011.4
20260509092004 11 0 0.0 0.0 0.00 0.00 0.00 76 1011.4
20260509091904 11 338 0.0 0.0 0.00 0.00 0.00 76 1011.9
20260509091803 11 0 0.0 0.0 0.00 0.00 0.00 76 1011.5
20260509091604 11 0 0.0 0.0 0.00 0.00 0.00 77 1011.4
20260509091555 10 338 0.0 0.0 0.00 0.00 0.00 78 1011.9
20260509091518 10 338 0.0 0.0 0.00 0.00 0.00 78 1011.9
20260509091403 10 338 0.0 0.0 0.00 0.00 0.00 78 1011.9
20260509091004 11 0 0.0 0.0 0.00 0.00 0.00 78 1011.5
20260509090903 11 338 0.0 0.0 0.00 0.00 0.00 78 1011.9
20260509090803 11 0 0.0 0.0 0.00 0.00 0.00 78 1011.4
20260509090604 11 0 0.0 0.0 0.00 0.00 0.00 79 1011.4
20260509090403 11 0 0.0 0.0 0.00 0.00 0.00 79 1011.5
20260509090203 11 0 0.0 0.0 0.00 0.00 0.00 79 1011.5
20260509090029 10 338 0.0 0.0 0.00 0.00 0.00 79 1011.9
20260509090004 11 0 0.0 0.0 0.00 0.00 0.00 79 1011.4
20260509085903 11 338 0.0 0.0 0.00 0.00 0.00 78 1011.9
20260509085805 11 0 0.0 0.0 0.00 0.00 0.00 78 1011.5
20260509085603 11 0 0.0 0.0 0.00 0.00 0.00 78 1011.5
20260509085204 11 0 0.0 0.0 0.00 0.00 0.00 78 1011.5
20260509085004 11 0 0.0 0.0 0.00 0.00 0.00 78 1011.6
20260509084903 11 338 0.0 0.0 0.00 0.00 0.00 77 1012.1
20260509084804 11 0 0.0 0.0 0.00 0.00 0.00 77 1011.6
20260509084603 11 0 0.0 0.0 0.00 0.00 0.00 75 1011.7
20260509084539 10 338 0.0 0.0 0.00 0.00 0.00 75 1012.1
20260509084004 11 0 0.0 0.0 0.00 0.00 0.00 76 1011.7
20260509083905 11 338 0.0 0.0 0.00 0.00 0.00 75 1012.1
20260509083803 11 0 0.0 0.0 0.00 0.00 0.00 75 1011.7
20260509083604 11 0 0.0 0.0 0.00 0.00 0.00 74 1011.7
20260509083404 11 0 0.0 0.0 0.00 0.00 0.00 73 1011.7
20260509083204 11 0 0.0 0.0 0.00 0.00 0.00 73 1011.8
20260509083046 10 338 0.0 0.0 0.00 0.00 0.00 73 1012.3
20260509083005 10 338 0.0 0.0 0.00 0.00 0.00 73 1012.3
20260509082903 11 338 0.0 0.0 0.00 0.00 0.00 73 1012.3
20260509082804 11 0 0.0 0.0 0.00 0.00 0.00 74 1011.8
20260509082603 11 0 0.0 0.0 0.00 0.00 0.00 74 1011.8
20260509082404 11 0 0.0 0.0 0.00 0.00 0.00 75 1011.8
20260509082204 11 0 0.0 0.0 0.00 0.00 0.00 75 1011.8
20260509082004 11 0 0.0 0.0 0.00 0.00 0.00 75 1011.8
20260509081903 11 338 0.0 0.0 0.00 0.00 0.00 76 1012.2
20260509081603 11 0 0.0 0.0 0.00 0.00 0.00 75 1011.8
20260509081517 10 338 0.0 0.0 0.00 0.00 0.00 75 1012.2
20260509081404 11 0 0.0 0.0 0.00 0.00 0.00 75 1011.8
20260509081204 11 0 0.0 0.0 0.00 0.00 0.00 74 1011.8
20260509081005 11 0 0.0 0.0 0.00 0.00 0.00 74 1011.8
20260509080904 11 338 0.0 0.0 0.00 0.00 0.00 74 1012.3
20260509080804 11 0 0.0 0.0 0.00 0.00 0.00 74 1011.9
20260509080604 11 0 0.0 0.0 0.00 0.00 0.00 74 1011.9
20260509080403 11 0 0.0 0.0 0.00 0.00 0.00 75 1011.9
20260509080204 11 0 0.0 0.0 0.00 0.00 0.00 74 1011.9
20260509080057 10 338 0.0 0.0 0.00 0.00 0.00 75 1012.4
20260509080019 10 338 0.0 0.0 0.00 0.00 0.00 75 1012.4
20260509080003 11 0 0.0 0.0 0.00 0.00 0.00 75 1011.9
20260509075903 11 338 0.0 0.0 0.00 0.00 0.00 75 1012.4
20260509075804 11 0 0.0 0.0 0.00 0.00 0.00 75 1011.9
20260509075404 11 0 0.0 0.0 0.00 0.00 0.00 75 1011.9
20260509075203 11 0 0.0 0.0 0.00 0.00 0.00 75 1011.9
20260509075004 11 0 0.0 0.0 0.00 0.00 0.00 75 1011.9
20260509074903 11 338 0.0 0.0 0.00 0.00 0.00 75 1012.4
20260509074604 11 0 0.0 0.0 0.00 0.00 0.00 75 1011.9
20260509074526 10 338 0.0 0.0 0.00 0.00 0.00 75 1012.4
20260509074403 11 338 0.0 0.0 0.00 0.00 0.00 75 1012.4
20260509074205 11 0 0.0 0.0 0.00 0.00 0.00 75 1012.0
20260509074004 11 0 0.0 0.0 0.00 0.00 0.00 75 1012.0
20260509073903 11 338 0.0 0.0 0.00 0.00 0.00 75 1012.5
20260509073803 11 0 0.0 0.0 0.00 0.00 0.00 75 1012.0
20260509073605 11 0 0.0 0.0 0.00 0.00 0.00 75 1012.0
20260509073403 11 0 0.0 0.0 0.00 0.00 0.00 75 1012.0
20260509073204 11 0 0.0 0.0 0.00 0.00 0.00 75 1011.9
20260509073027 10 202 0.0 0.0 0.00 0.00 0.00 75 1012.5
20260509073005 11 0 0.0 0.0 0.00 0.00 0.00 76 1012.0
20260509072903 11 202 0.0 0.0 0.00 0.00 0.00 75 1012.5
20260509072603 11 0 0.0 0.0 0.00 0.00 0.00 76 1012.0
20260509072404 11 0 0.0 0.0 0.00 0.00 0.00 76 1012.0
20260509072204 10 0 0.0 0.0 0.00 0.00 0.00 76 1012.1
20260509072003 10 0 0.0 0.0 0.00 0.00 0.00 76 1012.0
20260509071904 10 202 0.0 0.0 0.00 0.00 0.00 76 1012.5
20260509071804 10 0 0.0 0.0 0.00 0.00 0.00 76 1012.0
20260509071603 10 0 0.0 0.0 0.00 0.00 0.00 77 1012.0
20260509071531 10 202 0.0 0.0 0.00 0.00 0.00 77 1012.4
20260509071404 10 0 0.0 0.0 0.00 0.00 0.00 78 1012.0
20260509071204 10 0 0.0 0.0 0.00 0.00 0.00 78 1012.0
20260509070903 10 202 0.0 4.8 0.00 0.00 0.00 78 1012.4
20260509070804 10 0 0.0 4.8 0.00 0.00 0.00 78 1011.9
20260509070603 10 0 0.0 4.8 0.00 0.00 0.00 80 1011.9
20260509070405 10 0 0.0 0.0 0.00 0.00 0.00 81 1012.0
20260509070203 10 0 0.0 0.0 0.00 0.00 0.00 80 1012.0
20260509070043 10 202 0.0 0.0 0.00 0.00 0.00 82 1012.4
20260509070005 10 202 0.0 0.0 0.00 0.00 0.00 82 1012.4
20260509065904 10 115 0.0 0.0 0.00 0.00 0.00 82 1012.3
20260509065805 10 0 0.0 0.0 0.00 0.00 0.00 81 1011.9
20260509065603 10 0 0.0 0.0 0.00 0.00 0.00 84 1011.9
20260509065204 10 0 0.0 0.0 0.00 0.00 0.00 85 1011.9
20260509065004 10 0 0.0 0.0 0.00 0.00 0.00 86 1011.9
20260509064903 10 114 0.0 8.0 0.00 0.00 0.00 86 1012.4
20260509064804 10 0 0.0 8.0 0.00 0.00 0.00 86 1011.9
20260509064603 10 0 0.0 8.0 0.00 0.00 0.00 85 1011.9
20260509064545 9 114 0.0 0.0 0.00 0.00 0.00 85 1012.3
20260509064510 9 114 0.0 0.0 0.00 0.00 0.00 88 1012.3
20260509064403 9 129 0.0 0.0 0.00 0.00 0.00 88 1012.4
20260509064204 9 0 0.0 0.0 0.00 0.00 0.00 88 1011.9
20260509064003 9 0 0.0 0.0 0.00 0.00 0.00 88 1011.9
20260509063903 9 129 0.0 0.0 0.00 0.00 0.00 89 1012.3
20260509063804 9 0 0.0 0.0 0.00 0.00 0.00 89 1011.9
20260509063604 9 0 0.0 0.0 0.00 0.00 0.00 88 1012.0
20260509063404 9 129 0.0 0.0 0.00 0.00 0.00 88 1012.5
20260509063204 9 0 0.0 0.0 0.00 0.00 0.00 88 1012.0
20260509063052 9 129 0.0 0.0 0.00 0.00 0.00 88 1012.5
20260509063016 9 129 0.0 0.0 0.00 0.00 0.00 88 1012.5
20260509063004 9 0 0.0 0.0 0.00 0.00 0.00 89 1012.1
20260509062904 9 129 0.0 0.0 0.00 0.00 0.00 89 1012.5
20260509062803 9 0 0.0 0.0 0.00 0.00 0.00 89 1012.1
20260509062604 9 0 0.0 0.0 0.00 0.00 0.00 89 1012.1
20260509062404 9 0 0.0 0.0 0.00 0.00 0.00 89 1012.1
20260509062203 9 0 0.0 0.0 0.00 0.00 0.00 90 1012.1
20260509061903 9 129 0.0 0.0 0.00 0.00 0.00 90 1012.6
20260509061604 9 0 0.0 0.0 0.00 0.00 0.00 90 1012.1
20260509061528 8 129 0.0 0.0 0.00 0.00 0.00 90 1012.6
20260509061404 9 0 0.0 0.0 0.00 0.00 0.00 90 1012.2
20260509061004 9 0 0.0 0.0 0.00 0.00 0.00 90 1012.3
20260509060903 9 129 0.0 0.0 0.00 0.00 0.00 90 1012.7
20260509060804 9 0 0.0 0.0 0.00 0.00 0.00 90 1012.3
20260509060604 8 0 0.0 0.0 0.00 0.00 0.00 90 1012.2
20260509060404 8 129 0.0 0.0 0.00 0.00 0.00 90 1012.8
20260509060205 8 0 0.0 0.0 0.00 0.00 0.00 89 1012.4
20260509060028 8 129 0.0 0.0 0.00 0.00 0.00 90 1012.8
20260509060004 8 0 0.0 0.0 0.00 0.00 0.00 90 1012.4
20260509055804 8 0 0.0 0.0 0.00 0.00 0.00 90 1012.4
20260509055605 8 0 0.0 0.0 0.00 0.00 0.00 89 1012.4
20260509055404 8 0 0.0 0.0 0.00 0.00 0.00 89 1012.4
20260509055205 8 0 0.0 0.0 0.00 0.00 0.00 89 1012.4
20260509055004 8 0 0.0 0.0 0.00 0.00 0.00 89 1012.5
20260509054903 9 129 0.0 0.0 0.00 0.00 0.00 89 1013.0
20260509054804 8 0 0.0 0.0 0.00 0.00 0.00 89 1012.6
20260509054604 9 0 0.0 0.0 0.00 0.00 0.00 89 1012.6
20260509054545 8 129 0.0 0.0 0.00 0.00 0.00 89 1013.0
20260509054500 8 129 0.0 0.0 0.00 0.00 0.00 89 1013.0
20260509054404 9 0 0.0 0.0 0.00 0.00 0.00 88 1012.6
20260509054204 9 0 0.0 0.0 0.00 0.00 0.00 88 1012.6
20260509054004 9 0 0.0 0.0 0.00 0.00 0.00 88 1012.6
20260509053804 9 0 0.0 0.0 0.00 0.00 0.00 88 1012.7
20260509053605 9 0 0.0 0.0 0.00 0.00 0.00 88 1012.7
20260509053204 9 0 0.0 0.0 0.00 0.00 0.00 88 1012.8
20260509053134 8 129 0.0 0.0 0.00 0.00 0.00 88 1013.2
20260509053008 8 129 0.0 0.0 0.00 0.00 0.00 87 1013.2
20260509053004 9 0 0.0 0.0 0.00 0.00 0.00 87 1012.7
20260509052903 9 129 0.0 0.0 0.00 0.00 0.00 87 1013.2
20260509052803 9 0 0.0 0.0 0.00 0.00 0.00 87 1012.7
20260509052604 9 0 0.0 0.0 0.00 0.00 0.00 87 1012.8
20260509052404 9 0 0.0 0.0 0.00 0.00 0.00 87 1012.7
20260509052204 9 0 0.0 0.0 0.00 0.00 0.00 87 1012.7
20260509052004 9 0 0.0 0.0 0.00 0.00 0.00 87 1012.8
20260509051903 9 129 0.0 0.0 0.00 0.00 0.00 87 1013.2
20260509051803 9 0 0.0 0.0 0.00 0.00 0.00 87 1012.7
20260509051604 9 0 0.0 0.0 0.00 0.00 0.00 86 1012.7
20260509051551 9 129 0.0 0.0 0.00 0.00 0.00 86 1013.2
20260509051516 9 129 0.0 0.0 0.00 0.00 0.00 86 1013.2
20260509051404 9 0 0.0 0.0 0.00 0.00 0.00 86 1012.8
20260509051203 9 0 0.0 0.0 0.00 0.00 0.00 86 1012.9
20260509050904 10 129 0.0 0.0 0.00 0.00 0.00 86 1013.3
20260509050803 10 0 0.0 0.0 0.00 0.00 0.00 86 1012.9
20260509050604 10 0 0.0 0.0 0.00 0.00 0.00 86 1012.9
20260509050404 10 129 0.0 0.0 0.00 0.00 0.00 85 1013.3
20260509050035 9 129 0.0 0.0 0.00 0.00 0.00 85 1013.3
20260509050004 10 0 0.0 0.0 0.00 0.00 0.00 85 1012.9
20260509045904 10 129 0.0 0.0 0.00 0.00 0.00 85 1013.3
20260509045805 10 0 0.0 0.0 0.00 0.00 0.00 85 1012.9
20260509045405 10 0 0.0 0.0 0.00 0.00 0.00 85 1012.9
20260509045204 10 0 0.0 0.0 0.00 0.00 0.00 85 1012.9
20260509044903 10 129 0.0 0.0 0.00 0.00 0.00 84 1013.4
20260509044803 10 0 0.0 0.0 0.00 0.00 0.00 84 1012.9
20260509044604 10 0 0.0 0.0 0.00 0.00 0.00 84 1013.0
20260509044526 10 129 0.0 0.0 0.00 0.00 0.00 84 1013.4
20260509044405 10 0 0.0 0.0 0.00 0.00 0.00 84 1012.9
20260509044204 10 0 0.0 0.0 0.00 0.00 0.00 84 1012.9
20260509044005 10 0 0.0 0.0 0.00 0.00 0.00 84 1012.8
20260509043904 10 129 0.0 0.0 0.00 0.00 0.00 84 1013.3
20260509043804 10 0 0.0 0.0 0.00 0.00 0.00 84 1012.8
20260509043404 10 0 0.0 0.0 0.00 0.00 0.00 83 1012.8
20260509043204 10 0 0.0 0.0 0.00 0.00 0.00 83 1012.8
20260509043036 10 129 0.0 0.0 0.00 0.00 0.00 82 1013.3
20260509042903 10 129 0.0 0.0 0.00 0.00 0.00 83 1013.2
20260509042804 10 0 0.0 0.0 0.00 0.00 0.00 83 1012.8
20260509042605 10 0 0.0 0.0 0.00 0.00 0.00 83 1012.8
20260509042404 10 129 0.0 0.0 0.00 0.00 0.00 82 1013.3
20260509042005 10 0 0.0 0.0 0.00 0.00 0.00 82 1012.9
20260509041904 10 129 0.0 0.0 0.00 0.00 0.00 82 1013.3
20260509041604 10 0 0.0 0.0 0.00 0.00 0.00 81 1013.0
20260509041545 10 129 0.0 0.0 0.00 0.00 0.00 81 1013.5
20260509041510 10 129 0.0 0.0 0.00 0.00 0.00 81 1013.5
20260509041404 10 0 0.0 0.0 0.00 0.00 0.00 81 1013.0
20260509041205 10 0 0.0 0.0 0.00 0.00 0.00 81 1013.0
20260509041004 10 0 0.0 0.0 0.00 0.00 0.00 81 1013.0
20260509040804 10 0 0.0 0.0 0.00 0.00 0.00 81 1013.0
20260509040604 10 0 0.0 0.0 0.00 0.00 0.00 80 1013.0
20260509040404 10 0 0.0 0.0 0.00 0.00 0.00 80 1013.1
20260509040205 10 0 0.0 0.0 0.00 0.00 0.00 80 1013.0
20260509040109 10 129 0.0 0.0 0.00 0.00 0.00 80 1013.4
20260509040016 10 129 0.0 0.0 0.00 0.00 0.00 80 1013.4
20260509040005 10 0 0.0 0.0 0.00 0.00 0.00 80 1013.0
20260509035903 10 129 0.0 0.0 0.00 0.00 0.00 79 1013.4
20260509035805 10 0 0.0 0.0 0.00 0.00 0.00 79 1013.0
20260509035605 11 0 0.0 0.0 0.00 0.00 0.00 79 1013.0
20260509035404 11 0 0.0 0.0 0.00 0.00 0.00 79 1013.0
20260509035004 11 0 0.0 0.0 0.00 0.00 0.00 78 1013.0
20260509034904 11 129 0.0 0.0 0.00 0.00 0.00 78 1013.5
20260509034804 11 0 0.0 0.0 0.00 0.00 0.00 78 1013.1
20260509034604 11 0 0.0 0.0 0.00 0.00 0.00 78 1013.1
20260509034541 10 129 0.0 0.0 0.00 0.00 0.00 78 1013.5
20260509034505 10 129 0.0 0.0 0.00 0.00 0.00 78 1013.5
20260509034404 11 0 0.0 0.0 0.00 0.00 0.00 78 1013.1
20260509034204 11 0 0.0 0.0 0.00 0.00 0.00 77 1013.0
20260509034004 11 0 0.0 0.0 0.00 0.00 0.00 77 1013.1
20260509033903 11 129 0.0 0.0 0.00 0.00 0.00 77 1013.5
20260509033804 11 0 0.0 0.0 0.00 0.00 0.00 77 1013.1
20260509033603 11 0 0.0 0.0 0.00 0.00 0.00 77 1013.0
20260509033404 11 0 0.0 0.0 0.00 0.00 0.00 76 1013.1
20260509033043 11 129 0.0 0.0 0.00 0.00 0.00 76 1013.5
20260509033007 11 129 0.0 0.0 0.00 0.00 0.00 76 1013.5
20260509033005 11 0 0.0 0.0 0.00 0.00 0.00 76 1013.0
20260509032904 11 129 0.0 0.0 0.00 0.00 0.00 76 1013.5
20260509032804 11 0 0.0 0.0 0.00 0.00 0.00 75 1013.0
20260509032605 11 0 0.0 0.0 0.00 0.00 0.00 75 1013.1
20260509032404 11 0 0.0 0.0 0.00 0.00 0.00 74 1013.2
20260509032004 12 0 0.0 0.0 0.00 0.00 0.00 74 1013.1
20260509031903 12 129 0.0 0.0 0.00 0.00 0.00 74 1013.6
20260509031603 12 0 0.0 0.0 0.00 0.00 0.00 73 1013.1
20260509031558 11 129 0.0 0.0 0.00 0.00 0.00 73 1013.6
20260509031520 12 129 0.0 0.0 0.00 0.00 0.00 73 1013.6
20260509031204 12 0 0.0 0.0 0.00 0.00 0.00 72 1013.2
20260509031005 12 0 0.0 0.0 0.00 0.00 0.00 72 1013.2
20260509030904 12 129 0.0 0.0 0.00 0.00 0.00 73 1013.7
20260509030805 12 0 0.0 0.0 0.00 0.00 0.00 73 1013.2
20260509030604 12 0 0.0 0.0 0.00 0.00 0.00 72 1013.2
20260509030204 12 0 0.0 0.0 0.00 0.00 0.00 71 1013.3
20260509030033 12 129 0.0 0.0 0.00 0.00 0.00 71 1013.7
20260509030004 12 0 0.0 0.0 0.00 0.00 0.00 71 1013.3
20260509025904 12 129 0.0 0.0 0.00 0.00 0.00 71 1013.7
20260509025604 12 0 0.0 0.0 0.00 0.00 0.00 72 1013.2
20260509025404 12 129 0.0 0.0 0.00 0.00 0.00 72 1013.7
20260509025004 12 0 0.0 0.0 0.00 0.00 0.00 72 1013.2
20260509024804 12 0 0.0 0.0 0.00 0.00 0.00 72 1013.3
20260509024605 12 0 0.0 0.0 0.00 0.00 0.00 71 1013.3
20260509024544 12 129 0.0 0.0 0.00 0.00 0.00 71 1013.7
20260509024504 12 129 0.0 0.0 0.00 0.00 0.00 71 1013.7
20260509024403 12 129 0.0 0.0 0.00 0.00 0.00 70 1013.8
20260509024204 12 0 0.0 0.0 0.00 0.00 0.00 70 1013.3
20260509024004 13 0 0.0 0.0 0.00 0.00 0.00 71 1013.2
20260509023903 12 129 0.0 0.0 0.00 0.00 0.00 71 1013.7
20260509023803 13 0 0.0 0.0 0.00 0.00 0.00 71 1013.2
20260509023604 13 0 0.0 0.0 0.00 0.00 0.00 71 1013.2
20260509023204 13 0 0.0 0.0 0.00 0.00 0.00 72 1013.2
20260509023024 12 129 0.0 0.0 0.00 0.00 0.00 72 1013.6
20260509023004 13 0 0.0 0.0 0.00 0.00 0.00 72 1013.2
20260509022904 13 129 0.0 0.0 0.00 0.00 0.00 71 1013.7
20260509022805 13 0 0.0 0.0 0.00 0.00 0.00 71 1013.2